Wind_Speed
15 15 15 14 14 14 14 14 14 14 15 15 15 15 15 16 16 16 17 17 17 17 18 18 19 19 19 19 20 20 20 21 21 21 22 22 21 21
18 18 18 18 18 18 18 18 17 17 18 18 18 18 19 19 19 20 20 21 21 21 21 22 22 23 23 24 24 24 24 24 25 25 25 25 25 25
20 20 21 21 21 22 21 21 21 21 21 22 22 22 22 22 23 23 23 24 25 25 26 26 26 27 27 28 28 28 28 28 28 29 29 29 29 29
21 22 22 23 23 24 24 25 24 24 25 25 25 25 25 26 26 26 27 28 29 30 30 30 31 32 33 33 32 33 33 33 33 33 33 33 33 33
23 23 24 24 24 25 26 27 27 27 28 28 28 29 29 29 29 30 31 32 33 33 34 34 35 36 36 37 37 37 37 37 37 37 37 37 37 37
23 23 24 25 26 26 27 28 28 29 30 30 31 32 32 33 34 35 35 35 36 37 37 37 37 37 38 38 39 40 40 40 41 41 40 40 40 40
23 24 24 24 25 26 27 28 29 30 30 31 32 33 34 35 36 36 37 38 38 39 39 39 40 40 40 40 40 41 42 42 43 43 44 44 44 43
24 25 25 27 28 28 29 30 31 32 33 34 34 35 36 37 38 39 40 40 40 42 43 42 44 43 43 43 44 45 45 45 45 46 47 47 47 46
26 27 27 28 29 31 32 32 33 34 35 36 37 38 39 40 41 42 43 44 44 45 46 46 47 47 47 48 48 49 49 49 50 50 49 50 50 50
27 29 29 30 31 32 33 34 35 36 37 38 39 41 42 43 44 45 46 47 48 48 49 50 50 51 51 52 53 54 53 53 53 53 53 53 53 53
29 30 30 32 33 34 34 36 37 39 40 41 43 45 46 47 48 49 50 51 52 52 54 54 54 54 54 55 56 57 57 56 56 56 56 55 55 54
30 31 32 33 35 36 37 39 40 42 43 45 47 48 49 51 52 53 54 55 56 57 58 59 59 59 58 59 59 60 60 60 59 59 59 59 58 57
32 33 35 36 38 39 40 42 43 45 46 48 49 51 53 55 56 57 58 59 60 61 62 62 62 62 63 62 61 62 63 63 63 63 64 63 62 61
34 36 37 39 41 42 44 45 47 49 50 52 54 56 57 58 59 61 62 62 63 63 64 64 64 64 65 65 64 64 64 65 65 65 65 64 64 63
37 39 41 43 44 46 48 49 51 52 54 55 57 58 59 60 61 61 62 62 63 64 64 64 64 63 64 64 64 64 64 64 64 64 64 64 64 64
40 42 44 46 48 49 50 52 53 54 56 57 58 59 60 61 61 61 61 61 61 61 61 61 61 61 61 61 61 60 60 60 60 61 61 61 62 62
43 45 46 48 49 51 52 53 54 54 55 55 56 57 57 57 57 57 57 57 56 56 56 56 56 56 56 56 56 55 55 55 56 56 56 56 57 58
45 46 47 48 50 51 52 52 52 52 53 53 52 52 52 52 52 52 52 51 51 51 51 51 50 50 50 50 50 49 50 50 50 51 52 52 51 52
46 47 48 48 49 49 50 50 50 51 51 50 50 49 49 48 47 46 46 45 45 45 45 44 44 44 43 42 43 44 44 44 45 45 46 46 46 46
46 46 46 47 48 48 48 48 49 48 48 47 47 46 45 44 43 42 42 42 41 40 39 39 39 39 38 37 37 38 39 38 38 38 39 40 41 41
45 45 46 46 46 46 46 46 46 45 44 44 43 43 42 41 40 39 38 38 37 36 35 35 34 34 33 32 32 32 33 33 32 31 32 33 34 35
44 44 44 44 44 43 43 43 43 42 42 41 41 39 38 37 36 35 34 34 33 32 31 30 30 30 29 28 27 26 27 27 27 27 27 27 28 29
43 42 42 41 41 41 41 41 40 40 39 38 37 36 35 34 33 32 31 30 29 28 27 26 26 25 25 24 23 23 22 23 23 24 24 24 24 25
Wind_Direction
256 258 260 262 262 262 264 265 268 269 269 271 273 274 273 273 275 276 276 276 275 274 274 273 273 272 272 272 272 271 271 271 270 269 268 267 267 267
261 262 262 263 265 267 268 268 269 271 273 273 273 273 273 273 274 275 275 275 276 276 275 274 273 272 272 271 271 271 271 271 270 270 269 268 267 266
264 265 265 267 269 269 270 270 271 272 274 275 275 274 275 276 276 277 277 277 276 276 276 275 274 274 273 273 272 272 271 270 270 269 268 267 267 266
266 267 268 270 271 272 273 273 273 274 274 274 274 273 275 275 276 276 277 277 277 277 276 276 276 275 274 273 273 272 271 270 270 269 268 267 266 265
266 267 267 269 272 273 274 275 275 275 275 274 275 275 275 275 275 275 275 276 276 276 275 276 276 276 275 274 273 273 272 271 270 269 268 267 266 265
266 268 270 270 272 274 276 277 277 277 278 277 276 276 276 276 276 276 276 275 276 276 276 276 276 276 276 275 274 274 273 272 271 269 268 267 266 265
268 270 271 274 276 276 276 278 278 278 279 279 278 278 277 277 277 277 277 277 277 276 276 276 276 276 275 274 273 273 272 272 271 269 269 268 267 265
270 272 274 276 278 278 279 278 279 278 279 279 279 279 279 278 278 278 278 277 277 276 276 276 275 275 274 273 272 271 271 271 270 269 268 267 267 266
271 274 276 279 280 279 279 279 279 279 280 279 279 279 279 279 279 279 279 278 277 276 275 275 275 275 273 272 271 270 270 269 268 267 267 266 266 266
274 276 277 278 280 280 280 281 281 281 281 281 281 280 280 280 280 279 278 278 277 276 275 274 273 273 272 271 270 270 269 268 268 266 266 265 265 265
276 277 277 278 280 281 282 282 282 282 282 281 281 281 281 281 280 279 279 278 278 277 276 276 274 273 272 271 270 269 268 268 267 267 265 264 264 263
278 279 280 281 282 283 283 283 283 282 282 282 282 282 282 281 281 280 280 278 278 277 277 276 275 274 272 271 270 269 269 268 267 267 265 264 264 263
280 281 282 284 284 284 284 283 283 283 283 283 283 282 282 281 281 281 280 279 279 278 277 277 276 275 273 272 270 269 268 267 266 266 265 263 263 263
283 284 284 285 286 285 285 284 284 284 284 284 283 283 282 282 282 281 281 281 280 279 279 278 276 275 274 272 271 269 268 267 266 265 264 263 262 261
286 286 286 287 287 286 286 286 286 286 286 286 285 284 284 283 282 282 281 281 280 280 279 278 278 276 275 274 272 271 269 268 267 266 265 263 262 261
288 288 288 288 288 288 288 288 288 288 288 287 286 286 285 284 284 283 282 281 281 281 280 280 278 277 277 275 274 272 271 269 267 266 264 263 262 261
291 291 291 290 291 292 292 292 291 291 291 290 289 288 287 287 286 285 284 283 282 281 280 280 280 280 279 277 276 274 272 270 269 267 265 264 263 263
293 293 293 293 294 294 294 294 294 294 294 293 293 293 292 291 290 288 287 286 285 284 282 281 281 280 280 279 278 276 273 271 269 268 266 265 264 263
294 295 295 296 296 296 296 296 296 296 296 296 295 295 295 294 292 291 290 289 288 288 286 285 283 282 281 280 279 278 276 274 271 269 267 266 264 263
296 297 297 298 299 299 299 298 298 298 298 297 297 297 297 296 295 294 293 293 292 291 289 288 287 286 284 282 279 278 279 278 275 272 269 266 265 263
298 299 299 300 300 300 300 300 300 300 300 300 300 299 298 297 296 296 295 295 294 293 292 290 290 289 287 285 282 279 279 279 277 275 271 268 266 264
300 300 301 301 302 302 302 302 303 303 303 302 302 301 300 300 299 298 297 297 296 296 294 293 292 291 291 289 285 281 280 280 279 278 275 271 267 264
302 302 303 304 304 305 305 305 305 305 305 304 303 303 302 302 301 300 300 298 298 297 296 295 294 293 293 292 289 284 282 282 282 281 280 277 272 267
Height
5868 5868 5868 5868 5869 5869 5869 5868 5868 5868 5867 5867 5866 5865 5864 5863 5862 5862 5861 5860 5860 5859 5859 5858 5857 5856 5855 5855 5854 5853 5852 5851 5851 5850 5849 5849 5848 5847
5864 5864 5864 5864 5864 5864 5864 5864 5864 5863 5862 5862 5861 5860 5859 5858 5858 5857 5856 5855 5854 5853 5853 5852 5851 5850 5849 5848 5847 5847 5846 5845 5844 5844 5843 5842 5842 5841
5859 5859 5859 5858 5858 5858 5858 5858 5858 5857 5857 5856 5856 5855 5854 5853 5852 5851 5850 5849 5848 5847 5846 5845 5844 5843 5842 5841 5840 5839 5838 5837 5837 5836 5835 5834 5834 5833
5853 5853 5853 5853 5852 5852 5852 5851 5851 5850 5850 5849 5848 5848 5847 5846 5845 5844 5842 5841 5840 5839 5838 5836 5835 5834 5833 5832 5831 5830 5829 5828 5827 5827 5826 5826 5825 5824
5848 5847 5847 5847 5846 5845 5845 5844 5844 5843 5842 5841 5840 5839 5838 5838 5837 5836 5834 5833 5831 5830 5828 5827 5825 5824 5823 5822 5821 5820 5818 5817 5817 5816 5815 5815 5814 5814
5841 5841 5841 5840 5840 5839 5838 5837 5836 5835 5834 5833 5832 5830 5829 5828 5827 5826 5824 5823 5821 5820 5818 5817 5815 5813 5812 5811 5810 5808 5807 5806 5805 5804 5803 5803 5802 5802
5835 5835 5834 5833 5833 5832 5830 5829 5828 5826 5825 5824 5822 5821 5819 5817 5816 5815 5814 5812 5811 5809 5807 5806 5804 5802 5801 5799 5797 5796 5795 5794 5793 5792 5791 5790 5790 5789
5829 5828 5827 5826 5825 5824 5822 5821 5819 5817 5816 5814 5813 5811 5809 5807 5805 5803 5802 5800 5799 5797 5794 5793 5791 5790 5788 5786 5785 5783 5782 5780 5779 5778 5777 5776 5776 5775
5822 5821 5820 5818 5817 5815 5814 5812 5810 5808 5806 5804 5802 5800 5798 5796 5794 5792 5789 5787 5786 5784 5781 5780 5778 5776 5774 5772 5770 5768 5767 5766 5764 5763 5762 5762 5761 5761
5814 5813 5811 5810 5808 5806 5805 5803 5800 5798 5796 5793 5791 5789 5786 5784 5781 5779 5776 5774 5771 5769 5766 5765 5763 5761 5759 5756 5754 5752 5751 5749 5748 5747 5746 5746 5745 5745
5806 5804 5803 5801 5799 5797 5795 5793 5790 5787 5784 5782 5779 5776 5773 5770 5767 5764 5761 5759 5756 5753 5750 5748 5746 5745 5743 5740 5737 5735 5733 5732 5731 5730 5729 5728 5728 5728
5797 5796 5794 5792 5789 5787 5784 5781 5778 5775 5772 5769 5765 5762 5758 5755 5751 5748 5745 5741 5738 5736 5732 5730 5727 5726 5725 5722 5719 5716 5714 5712 5711 5711 5710 5710 5710 5710
5788 5786 5784 5782 5779 5776 5772 5769 5765 5762 5758 5755 5751 5746 5742 5738 5734 5730 5726 5723 5719 5716 5713 5710 5707 5704 5702 5702 5700 5696 5694 5692 5691 5690 5690 5690 5690 5691
5779 5776 5773 5770 5767 5764 5760 5756 5752 5748 5743 5739 5734 5730 5725 5720 5716 5711 5706 5702 5698 5694 5691 5688 5685 5683 5680 5679 5678 5676 5672 5670 5669 5669 5668 5668 5669 5669
5768 5764 5761 5758 5754 5750 5746 5741 5736 5731 5726 5721 5716 5711 5706 5701 5696 5691 5686 5682 5677 5673 5669 5666 5663 5661 5658 5656 5655 5653 5651 5649 5647 5646 5647 5647 5647 5648
5756 5752 5748 5744 5739 5735 5730 5725 5720 5714 5708 5703 5697 5692 5686 5681 5676 5671 5667 5662 5658 5653 5648 5644 5641 5639 5636 5634 5632 5630 5628 5627 5626 5625 5625 5626 5626 5627
5742 5738 5733 5728 5723 5719 5713 5708 5702 5696 5690 5684 5678 5673 5667 5661 5656 5651 5647 5642 5638 5634 5630 5626 5621 5619 5616 5614 5612 5610 5608 5607 5606 5605 5605 5606 5607 5607
5729 5724 5719 5713 5708 5703 5697 5691 5685 5679 5673 5667 5661 5655 5650 5644 5639 5634 5629 5625 5621 5617 5613 5609 5606 5603 5600 5596 5594 5592 5590 5589 5588 5587 5587 5588 5590 5589
5715 5710 5705 5699 5693 5687 5681 5675 5669 5663 5657 5651 5645 5640 5634 5628 5623 5618 5614 5609 5605 5601 5597 5593 5590 5588 5586 5583 5580 5575 5574 5573 5572 5572 5571 5572 5573 5574
5702 5696 5690 5684 5678 5672 5666 5660 5654 5648 5642 5636 5630 5625 5619 5614 5609 5605 5600 5596 5592 5588 5584 5580 5577 5574 5572 5570 5568 5564 5561 5559 5558 5558 5557 5557 5558 5559
5688 5683 5677 5671 5665 5659 5653 5646 5640 5634 5628 5622 5617 5612 5606 5602 5597 5593 5588 5584 5580 5576 5573 5569 5565 5562 5560 5558 5556 5554 5551 5548 5547 5546 5545 5546 5546 5547
5675 5669 5663 5657 5651 5645 5639 5633 5627 5622 5616 5610 5605 5600 5595 5590 5586 5582 5578 5574 5570 5566 5563 5559 5556 5553 5550 5548 5546 5544 5542 5540 5538 5536 5535 5536 5536 5537
5662 5657 5651 5645 5639 5633 5627 5621 5616 5610 5605 5599 5594 5589 5585 5580 5576 5572 5568 5564 5561 5557 5554 5551 5548 5545 5542 5540 5538 5536 5534 5533 5531 5529 5528 5527 5527 5527